TimeEDT,TemperatureF,Dew PointF,Humidity,Sea Level PressureIn,VisibilityMPH,Wind Direction,Wind SpeedMPH,Gust SpeedMPH,PrecipitationIn,Events,Conditions,WindDirDegrees,DateUTC
12:15 AM,78.8,78.8,100,29.99,5.0,SSW,6.9,-,0.00,,Partly Cloudy,210,2013-06-12 04:15:00
12:35 AM,78.8,78.8,100,29.99,5.0,SW,5.8,-,0.00,,Partly Cloudy,230,2013-06-12 04:35:00
12:55 AM,78.8,78.8,100,30.00,5.0,WSW,4.6,-,0.00,,Partly Cloudy,240,2013-06-12 04:55:00
1:15 AM,78.8,77.0,94,29.99,5.0,Calm,Calm,-,0.00,,Partly Cloudy,0,2013-06-12 05:15:00
1:35 AM,78.8,77.0,94,29.98,5.0,Calm,Calm,-,0.00,,Scattered Clouds,0,2013-06-12 05:35:00
1:55 AM,78.8,78.8,100,29.98,4.0,Calm,Calm,-,0.00,,Partly Cloudy,0,2013-06-12 05:55:00
2:15 AM,78.8,78.8,100,29.98,3.0,SSW,4.6,-,0.00,,Mostly Cloudy,210,2013-06-12 06:15:00
2:35 AM,78.8,78.8,100,29.98,3.0,Calm,Calm,-,0.00,,Scattered Clouds,0,2013-06-12 06:35:00
2:55 AM,78.8,78.8,100,29.97,4.0,SW,4.6,-,0.00,,Partly Cloudy,220,2013-06-12 06:55:00
3:15 AM,78.8,75.2,89,29.97,7.0,SW,5.8,-,0.00,,Partly Cloudy,220,2013-06-12 07:15:00
3:35 AM,78.8,75.2,89,29.97,10.0,SW,5.8,-,0.00,,Partly Cloudy,220,2013-06-12 07:35:00
3:55 AM,78.8,73.4,83,29.96,10.0,SW,5.8,-,0.00,,Clear,230,2013-06-12 07:55:00
4:15 AM,77.0,73.4,89,29.96,10.0,SW,4.6,-,0.00,,Clear,230,2013-06-12 08:15:00
4:35 AM,77.0,73.4,89,29.96,10.0,WSW,5.8,-,0.00,,Clear,250,2013-06-12 08:35:00
4:55 AM,77.0,73.4,89,29.96,10.0,WSW,6.9,-,0.00,,Clear,250,2013-06-12 08:55:00
5:15 AM,75.2,71.6,89,29.96,10.0,West,5.8,-,0.00,,Clear,260,2013-06-12 09:15:00
5:35 AM,75.2,73.4,94,29.97,9.0,West,4.6,-,0.00,,Clear,270,2013-06-12 09:35:00
5:55 AM,75.2,71.6,89,29.98,9.0,West,4.6,-,0.00,,Clear,270,2013-06-12 09:55:00
6:15 AM,75.2,71.6,89,29.98,7.0,Calm,Calm,-,0.00,,Clear,0,2013-06-12 10:15:00
6:35 AM,75.2,71.6,89,29.98,6.0,Calm,Calm,-,0.00,,Clear,0,2013-06-12 10:35:00
6:55 AM,75.2,71.6,89,29.99,7.0,Calm,Calm,-,0.00,,Clear,0,2013-06-12 10:55:00
7:15 AM,77.0,73.4,89,29.99,8.0,West,4.6,-,0.00,,Clear,270,2013-06-12 11:15:00
7:35 AM,78.8,73.4,83,30.00,8.0,West,8.1,-,0.00,,Clear,280,2013-06-12 11:35:00
7:55 AM,80.6,73.4,79,30.00,8.0,West,8.1,-,0.00,,Clear,280,2013-06-12 11:55:00
8:15 AM,80.6,73.4,79,30.00,8.0,West,6.9,-,0.00,,Clear,280,2013-06-12 12:15:00
8:35 AM,82.4,73.4,74,30.00,8.0,West,8.1,-,0.00,,Clear,280,2013-06-12 12:35:00
8:55 AM,82.4,75.2,79,30.00,10.0,West,5.8,-,0.00,,Clear,270,2013-06-12 12:55:00
9:15 AM,84.2,75.2,74,30.00,9.0,WNW,5.8,-,0.00,,Clear,290,2013-06-12 13:15:00
9:35 AM,86.0,75.2,70,30.00,10.0,WNW,6.9,-,0.00,,Clear,300,2013-06-12 13:35:00
9:55 AM,87.8,75.2,66,30.00,10.0,WNW,5.8,-,0.00,,Clear,300,2013-06-12 13:55:00
10:15 AM,87.8,73.4,62,30.00,10.0,WNW,4.6,-,0.00,,Clear,300,2013-06-12 14:15:00
10:35 AM,87.8,75.2,66,30.00,10.0,NW,3.5,-,0.00,,Clear,310,2013-06-12 14:35:00
10:55 AM,89.6,73.4,59,30.01,10.0,NW,3.5,-,0.00,,Clear,320,2013-06-12 14:55:00
11:15 AM,89.6,73.4,59,30.01,10.0,NW,5.8,-,0.00,,Clear,310,2013-06-12 15:15:00
11:35 AM,89.6,73.4,59,30.02,10.0,WNW,6.9,-,0.00,,Clear,290,2013-06-12 15:35:00
11:55 AM,89.6,71.6,55,30.01,10.0,Calm,Calm,-,0.00,,Clear,0,2013-06-12 15:55:00
12:15 PM,91.4,73.4,55,30.01,10.0,WSW,3.5,-,0.00,,Partly Cloudy,250,2013-06-12 16:15:00
12:35 PM,93.2,71.6,49,30.00,10.0,WNW,3.5,-,0.00,,Partly Cloudy,290,2013-06-12 16:35:00
12:55 PM,93.2,73.4,52,30.00,10.0,WNW,3.5,-,0.00,,Scattered Clouds,290,2013-06-12 16:55:00
1:15 PM,93.2,71.6,49,29.99,10.0,West,8.1,-,0.00,,Partly Cloudy,280,2013-06-12 17:15:00
1:35 PM,93.2,69.8,46,29.99,10.0,Calm,Calm,-,0.00,,Scattered Clouds,0,2013-06-12 17:35:00
1:55 PM,93.2,69.8,46,29.99,10.0,Calm,Calm,-,0.00,,Partly Cloudy,0,2013-06-12 17:55:00
2:15 PM,93.2,71.6,49,29.99,10.0,Calm,Calm,-,0.00,,Scattered Clouds,0,2013-06-12 18:15:00
2:35 PM,91.4,78.8,66,29.98,10.0,SSW,6.9,-,0.00,,Partly Cloudy,200,2013-06-12 18:35:00
2:55 PM,89.6,78.8,70,29.97,10.0,SSE,8.1,-,0.00,,Partly Cloudy,160,2013-06-12 18:55:00
3:15 PM,89.6,75.2,62,29.97,10.0,SSW,4.6,-,0.00,,Scattered Clouds,200,2013-06-12 19:15:00
3:35 PM,91.4,77.0,63,29.96,10.0,South,10.4,-,0.00,,Mostly Cloudy,180,2013-06-12 19:35:00
3:55 PM,89.6,78.8,70,29.95,10.0,South,10.4,17.3,0.00,,Partly Cloudy,170,2013-06-12 19:55:00
4:15 PM,89.6,78.8,70,29.95,10.0,SSW,13.8,-,0.00,,Clear,200,2013-06-12 20:15:00
4:35 PM,89.6,77.0,66,29.95,10.0,SSW,11.5,-,0.00,,Clear,210,2013-06-12 20:35:00
4:55 PM,91.4,77.0,63,29.94,10.0,SSW,8.1,-,0.00,,Clear,210,2013-06-12 20:55:00
5:15 PM,91.4,78.8,66,29.94,10.0,South,11.5,-,0.00,,Clear,190,2013-06-12 21:15:00
5:35 PM,89.6,77.0,66,29.93,10.0,SSW,9.2,-,0.00,,Clear,210,2013-06-12 21:35:00
5:55 PM,89.6,77.0,66,29.93,10.0,South,3.5,-,0.00,,Clear,190,2013-06-12 21:55:00
6:15 PM,89.6,77.0,66,29.93,10.0,SSW,8.1,-,0.00,,Clear,210,2013-06-12 22:15:00
6:35 PM,89.6,78.8,70,29.93,10.0,SW,6.9,-,0.00,,Clear,220,2013-06-12 22:35:00
6:55 PM,89.6,78.8,70,29.94,10.0,SW,5.8,-,0.00,,Clear,220,2013-06-12 22:55:00
7:15 PM,87.8,77.0,70,29.94,10.0,Calm,Calm,-,0.00,,Clear,0,2013-06-12 23:15:00
7:35 PM,87.8,78.8,75,29.94,10.0,SSW,9.2,-,0.00,,Clear,200,2013-06-12 23:35:00
7:55 PM,84.2,78.8,84,29.93,10.0,SSW,5.8,-,0.00,,Clear,210,2013-06-12 23:55:00
8:15 PM,84.2,78.8,84,29.94,9.0,SSW,5.8,-,0.00,,Clear,210,2013-06-13 00:15:00
8:35 PM,84.2,78.8,84,29.95,9.0,SSW,6.9,-,0.00,,Clear,210,2013-06-13 00:35:00
8:55 PM,82.4,78.8,89,29.95,10.0,SW,5.8,-,0.00,,Clear,220,2013-06-13 00:55:00
9:15 PM,82.4,78.8,89,29.96,10.0,SW,5.8,-,0.00,,Clear,220,2013-06-13 01:15:00
9:35 PM,82.4,78.8,89,29.96,9.0,SW,6.9,-,0.00,,Clear,230,2013-06-13 01:35:00
9:55 PM,82.4,78.8,89,29.95,9.0,Calm,Calm,-,0.00,,Clear,0,2013-06-13 01:55:00
10:15 PM,80.6,78.8,94,29.96,8.0,Calm,Calm,-,0.00,,Clear,0,2013-06-13 02:15:00
10:35 PM,80.6,78.8,94,29.96,6.0,South,4.6,-,0.00,,Clear,180,2013-06-13 02:35:00
10:55 PM,82.4,78.8,89,29.96,8.0,SSW,6.9,-,0.00,,Clear,200,2013-06-13 02:55:00
11:15 PM,82.4,78.8,89,29.96,8.0,SSW,6.9,-,0.00,,Clear,200,2013-06-13 03:15:00
11:35 PM,82.4,78.8,89,29.95,8.0,SSW,8.1,-,0.00,,Clear,200,2013-06-13 03:35:00
11:55 PM,82.4,78.8,89,29.95,8.0,SSW,9.2,-,0.00,,Clear,200,2013-06-13 03:55:00